Showing default

KINEIS-4D, 63302

Orbit data source: Space-Track

KINEIS-4D, 63302 is a French payload satellite in SSO that was launched on Tue, 18 Mar 2025 UTC via an ELECTRON launch vehicle from the Rocket Lab Launch Complex (RLLC). Payload-class satellites include a variety of spacecraft equipped with specific instruments for various scientific and technological missions. These include communications satellites like Starlink; space stations such as the ISS; scientific satellites like the Hubble; Earth observation satellites from companies like Planet Labs, Umbra, and HawkEye 360; GPS; miniature CubeSats for education and research; and military/defense satellites.

Loading next visibility...
Identifier
63302, 2025-056C
Orbit
SSO
Last TLE update
1 day ago
Origin
Manufacturer
KINEIS
Mission
Operational spacecraft
Bus & Motor
CUBESAT 16U, Unknown motor
Mass
28 kg wet, 28 kg dry
Launch date (UTC)
2025-03-18 (1 month ago)
Launch vehicle
ELECTRON
Launch site
Rocket Lab Launch Complex (RLLC)
Object type
Payload
Rocket body
Debris
Shape & HBR
Unknown
Radar Cross Section
Medium (>0.1 m² and <1 m²)

Expand to show TLE details & history

TLE from 1 day ago
0 KINEIS-4D
1 63302U 25056C   25119.21410551  .00004279  00000-0  63787-3 0  9995
2 63302  97.9754 245.8761 0001811 168.6817 191.4433 14.75372510  6217
Epoch: 2025-04-29T05:08Z
Definitive object data (Epoch: 2025-04-29T05:08:18.716Z)
Latitude
-0.00002°
Longitude
-48.61887°
Altitude
648.229 km
Speed
7.533 km/s
True Right ascension
16h 23m 30s
True Declination
0° 00' 00"
Sunlit
Object was in full shadow at TLE epoch
Visualization TLE readout
Latitude
5.44096°
Longitude
-48.175°
Altitude
647.596 km
Speed
7.534 km/s
Apparent Right ascension
13h 51m 36s
Apparent Declination
-46° 37' 52"
Sunlit
Object is in full shadow
Visualization observer readout
Local Sidereal Time
18:01:42
Azimuth
218.686° SW
Elevation
-12.913°
Doppler factor
1
Orbital elements
Apogee altitude
642.291 km
Perigee altitude
639.748 km
Semi-major axis
7,019.156 km
Eccentricity
0.0001811
Inclination
97.9754°
RAAN
245.8761°
Arg. of periapsis
168.6817°
True anomaly
191.43918°
Mean anomaly
191.4433°
Eccentric anomaly
191.44124°
Mean motion
3.69076 °/min
BSTAR
0.00063787
Orbital period
97.54 mins
Loading maneuver chart data...
Loading SW <> Apogee altitude chart data...
Loading historical data...
Loading historical data...
Loading historical data...
Loading historical data...
Loading historical data...
Loading historical data...
Loading historical data...

KINEIS-4D Visibility forecast

Observer location: undefined°, undefined°

Span
Click to sort rows by Start time (UTC) header in descending order
Start Az.
Max El. time (UTC)
Max El. Az.
Max El.
End time (UTC)
End Az.
7 mins2025-04-30 20:46:41.756Z30.953° NE2025-04-30 20:50:41.756Z111.736° ESE32.399°2025-04-30 20:53:41.756Z164.241° S
4 mins2025-04-30 22:24:41.756Z324.678° NNW2025-04-30 22:26:41.756Z292.255° WNW17.514°2025-04-30 22:28:41.756Z260.829° W
6 mins2025-05-01 07:44:41.756Z122.891° SE2025-05-01 07:47:41.756Z59.648° ENE27.992°2025-05-01 07:50:41.756Z10.938° NNE
5 mins2025-05-01 09:21:41.756Z227.35° WSW2025-05-01 09:23:41.756Z260.852° W20.184°2025-05-01 09:26:41.756Z309.935° NW
|